This is the latest recevied weather packets stored in our database for station/object DM4XI-13. If no packets are shown the sender has not sent any weather packets the latest 10 day(s).
| Time | Temp. | Humidity | Pressure | Rain* | Wind** | Luminosity | Snow |
|---|---|---|---|---|---|---|---|
| 1778137289 | 10° C | 88% | 1009.3 hPa | 0 mm | 0.89 m/s, 203° | 102 W/m² | - |
| 1778137228 | 10° C | 88% | 1009.5 hPa | 0 mm | 0.45 m/s, 197° | 92 W/m² | - |
| 1778137167 | 10° C | 88% | 1009.6 hPa | 0 mm | 0.89 m/s, 178° | 89 W/m² | - |
| 1778137107 | 10° C | 88% | 1009.7 hPa | 0 mm | 0.45 m/s, 184° | 81 W/m² | - |
| 1778137045 | 10° C | 88% | 1009.5 hPa | 0 mm | 0.89 m/s, 193° | 77 W/m² | - |
| 1778136984 | 10° C | 87% | 1009.7 hPa | 0 mm | 0.45 m/s, 234° | 68 W/m² | - |
| 1778136923 | 10.56° C | 87% | 1009.5 hPa | 0 mm | 0.89 m/s, 178° | 67 W/m² | - |
| 1778136862 | 10.56° C | 87% | 1009.6 hPa | 0 mm | 0.89 m/s, 207° | 59 W/m² | - |
| 1778136801 | 10.56° C | 87% | 1009.4 hPa | 0 mm | 0.89 m/s, 189° | 53 W/m² | - |
| 1778136740 | 10.56° C | 87% | 1009.6 hPa | 0 mm | 1.79 m/s, 156° | 56 W/m² | - |
| 1778136679 | 10.56° C | 88% | 1009.3 hPa | 0 mm | 0.89 m/s, 191° | 63 W/m² | - |
| 1778136618 | 10.56° C | 88% | 1009.5 hPa | 0 mm | 0.45 m/s, 172° | 71 W/m² | - |
| 1778136557 | 10.56° C | 88% | 1009.4 hPa | 0 mm | 0.89 m/s, 180° | 84 W/m² | - |
| 1778136496 | 10.56° C | 88% | 1009.5 hPa | 0 mm | 0.89 m/s, 201° | 98 W/m² | - |
| 1778136435 | 10.56° C | 89% | 1009.5 hPa | 0 mm | 0.45 m/s, 183° | 109 W/m² | - |
| 1778136374 | 10.56° C | 89% | 1009.4 hPa | 0 mm | 0 m/s | 111 W/m² | - |
| 1778136313 | 10° C | 88% | 1009.4 hPa | 0 mm | 0.45 m/s, 193° | 117 W/m² | - |
| 1778136253 | 10° C | 88% | 1009.6 hPa | 0 mm | 0.89 m/s, 221° | 113 W/m² | - |
| 1778136191 | 10° C | 89% | 1009.4 hPa | 0 mm | 0.45 m/s, 184° | 98 W/m² | - |
| 1778136131 | 10° C | 88% | 1009.5 hPa | 0 mm | 2.24 m/s, 179° | 98 W/m² | - |
| 1778136070 | 10° C | 88% | 1009.4 hPa | 0 mm | 1.79 m/s, 207° | 101 W/m² | - |
| 1778136008 | 10° C | 88% | 1009.4 hPa | 0 mm | 0.45 m/s, 148° | 103 W/m² | - |
| 1778135947 | 10° C | 89% | 1009.5 hPa | 0 mm | 0 m/s | 93 W/m² | - |
| 1778135886 | 10° C | 88% | 1009.3 hPa | 0 mm | 0.45 m/s, 186° | 74 W/m² | - |
| 1778135826 | 10° C | 89% | 1009.3 hPa | 0 mm | 0.89 m/s, 207° | 66 W/m² | - |
* Rain latest hour (hover to see other rain measurements)
** Current wind speed in m/s (hover to see current wind gust speed)